DW3693 Weather Reports


Display with metric or nautical units.
time (UTC)temp
F
wind
direction
speed
MPH
gust
MPH
rain 1hr
in
rain 24hr
in
rain mn
in
humidity
%
barometer
mb
20260508170017 54 270 4.0 11.0 0.00 0.00 0.00 67 1018.2
20260508165017 54 293 6.0 15.0 0.00 0.00 0.00 66 1018.2
20260508164017 54 270 5.0 12.0 0.00 0.00 0.00 68 1018.0
20260508163017 54 270 6.0 12.0 0.00 0.00 0.00 67 1018.3
20260508162016 54 270 4.0 13.0 0.00 0.00 0.00 68 1018.5
20260508161058 55 270 4.0 11.0 0.00 0.00 0.00 68 1018.7
20260508160017 55 270 2.0 7.0 0.00 0.00 0.00 68 1018.3
20260508155037 55 270 6.0 14.0 0.00 0.00 0.00 66 1018.3
20260508154019 56 293 4.0 14.0 0.00 0.00 0.00 69 1018.4
20260508153016 55 315 3.0 11.0 0.00 0.00 0.00 68 1018.2
20260508152016 55 135 3.0 10.0 0.00 0.00 0.00 70 1018.3
20260508151038 55 248 5.0 19.0 0.00 0.00 0.00 69 1018.3
20260508150017 55 270 6.0 21.0 0.00 0.00 0.00 70 1017.9
20260508145037 55 248 6.0 16.0 0.00 0.00 0.00 68 1018.1
20260508144037 55 293 4.0 10.0 0.00 0.00 0.00 68 1017.8
20260508143016 54 270 4.0 12.0 0.00 0.00 0.00 67 1017.6
20260508142016 54 293 3.0 11.0 0.00 0.00 0.00 65 1017.5
20260508141016 54 270 5.0 16.0 0.00 0.00 0.00 64 1017.1
20260508140016 54 203 2.0 7.0 0.00 0.00 0.00 64 1017.1
20260508135017 54 315 3.0 11.0 0.00 0.00 0.00 62 1016.9
20260508134016 55 293 3.0 11.0 0.00 0.00 0.00 63 1016.9
20260508133016 55 315 3.0 10.0 0.00 0.00 0.00 63 1016.6
20260508132058 55 270 3.0 7.0 0.00 0.00 0.00 65 1016.6
20260508131016 55 248 5.0 14.0 0.00 0.00 0.00 65 1016.6
20260508130036 55 293 4.0 14.0 0.00 0.00 0.00 66 1016.5
20260508125016 55 248 5.0 13.0 0.00 0.00 0.00 66 1016.5
20260508124016 55 270 3.0 10.0 0.00 0.00 0.00 65 1016.6
20260508123016 55 270 3.0 10.0 0.00 0.00 0.00 65 1016.5
20260508122036 55 293 2.0 12.0 0.00 0.00 0.00 65 1016.5
20260508121016 55 270 3.0 12.0 0.00 0.00 0.00 65 1016.5
20260508120015 56 338 3.0 9.0 0.00 0.00 0.00 64 1016.5
20260508115016 56 293 3.0 7.0 0.00 0.00 0.00 63 1016.4
20260508114016 56 293 3.0 14.0 0.00 0.00 0.00 62 1016.4
20260508113016 56 270 3.0 11.0 0.00 0.00 0.00 61 1016.3
20260508112017 56 270 1.0 2.0 0.00 0.00 0.00 59 1016.1
20260508111016 57 248 2.0 6.0 0.00 0.00 0.00 58 1016.1
20260508110036 56 248 2.0 7.0 0.00 0.00 0.00 58 1016.0
20260508105017 55 203 1.0 4.0 0.00 0.00 0.00 60 1015.9
20260508104016 54 315 1.0 2.0 0.00 0.00 0.00 62 1015.9
20260508103016 55 338 1.0 3.0 0.00 0.00 0.00 60 1015.9
20260508102016 55 0.0 2.0 0.00 0.00 0.00 59 1015.9
20260508101016 56 45 1.0 3.0 0.00 0.00 0.00 58 1015.9
20260508100018 55 45 1.0 4.0 0.00 0.00 0.00 58 1015.9
20260508095016 55 293 1.0 3.0 0.00 0.00 0.00 59 1015.9
20260508094016 55 0.0 2.0 0.00 0.00 0.00 59 1015.9
20260508093016 56 293 1.0 5.0 0.00 0.00 0.00 57 1015.8
20260508092015 55 0.0 3.0 0.00 0.00 0.00 57 1015.7
20260508091017 56 225 1.0 4.0 0.00 0.00 0.00 55 1015.8
20260508090015 56 270 1.0 4.0 0.00 0.00 0.00 55 1015.7
20260508085016 57 270 1.0 2.0 0.00 0.00 0.00 54 1015.7
20260508084015 58 270 2.0 5.0 0.00 0.00 0.00 53 1015.6
20260508083035 58 293 3.0 10.0 0.00 0.00 0.00 51 1015.7
20260508082016 58 270 2.0 4.0 0.00 0.00 0.00 50 1015.6
20260508081016 57 270 3.0 6.0 0.00 0.00 0.00 51 1015.6
20260508080015 57 203 1.0 3.0 0.00 0.00 0.00 51 1015.6
20260508075036 58 248 1.0 2.0 0.00 0.00 0.00 48 1015.6
20260508074036 58 270 1.0 3.0 0.00 0.00 0.00 47 1015.6
20260508073015 58 270 1.0 3.0 0.00 0.00 0.00 47 1015.7
20260508072017 59 293 1.0 5.0 0.00 0.00 0.00 45 1015.6
20260508071017 60 248 3.0 5.0 0.00 0.00 0.00 45 1015.6
20260508070017 59 270 3.0 6.0 0.00 0.00 0.00 44 1015.6
20260508065017 60 293 2.0 5.0 0.00 0.00 0.00 44 1015.7
20260508064017 60 270 3.0 9.0 0.00 0.00 0.00 45 1015.6
20260508063017 60 270 1.0 3.0 0.00 0.00 0.00 45 1015.7
20260508062036 60 270 4.0 10.0 0.00 0.00 0.00 44 1015.6
20260508061017 60 270 3.0 7.0 0.00 0.00 0.00 46 1015.6
20260508060018 60 270 3.0 11.0 0.00 0.00 0.00 45 1015.8
20260508055037 60 315 4.0 12.0 0.00 0.00 0.00 45 1015.7
20260508054017 61 248 3.0 10.0 0.00 0.00 0.00 45 1015.5
20260508053017 61 270 3.0 7.0 0.00 0.00 0.00 46 1015.6
20260508052017 60 23 1.0 4.0 0.00 0.00 0.00 48 1015.6
20260508051037 61 293 2.0 7.0 0.00 0.00 0.00 47 1015.6
20260508050017 61 293 2.0 6.0 0.00 0.00 0.00 48 1015.6
20260508045037 61 293 2.0 7.0 0.00 0.00 0.00 48 1015.5
20260508044017 61 293 2.0 6.0 0.00 0.00 0.00 46 1015.5
20260508043018 61 270 2.0 9.0 0.00 0.00 0.00 47 1015.5
20260508042041 61 293 2.0 4.0 0.00 0.00 0.00 47 1015.4
20260508041041 62 180 1.0 3.0 0.00 0.00 0.00 46 1015.4
20260508040016 62 293 3.0 6.0 0.00 0.00 0.00 45 1015.4
20260508035018 62 293 2.0 7.0 0.00 0.00 0.00 45 1015.2
20260508034017 62 270 3.0 10.0 0.00 0.00 0.00 44 1015.1
20260508033017 62 203 2.0 4.0 0.00 0.00 0.00 44 1015.1
20260508032016 61 270 1.0 3.0 0.00 0.00 0.00 44 1014.8
20260508031016 62 293 1.0 2.0 0.00 0.00 0.00 41 1014.8
20260508030017 63 293 1.0 3.0 0.00 0.00 0.00 39 1014.7
20260508025017 63 270 1.0 5.0 0.00 0.00 0.00 37 1014.7
20260508024016 64 293 1.0 4.0 0.00 0.00 0.00 35 1014.7
20260508023016 64 315 2.0 7.0 0.00 0.00 0.00 35 1014.7
20260508022016 65 248 2.0 4.0 0.00 0.00 0.00 31 1014.7
20260508021016 66 270 1.0 5.0 0.00 0.00 0.00 30 1014.6
20260508020016 66 293 2.0 9.0 0.00 0.00 0.00 30 1014.6
20260508015016 67 315 3.0 11.0 0.00 0.00 0.00 30 1014.7
20260508014016 68 248 3.0 11.0 0.00 0.00 0.00 31 1014.7
20260508013016 68 203 1.0 3.0 0.00 0.00 0.00 31 1014.7
20260508012016 69 270 5.0 10.0 0.00 0.00 0.00 28 1014.9
20260508011016 69 270 4.0 13.0 0.00 0.00 0.00 28 1014.9
20260508010016 69 270 4.0 15.0 0.00 0.00 0.00 27 1014.8
20260508005016 69 270 2.0 7.0 0.00 0.00 0.00 29 1015.0
20260508004036 68 270 4.0 12.0 0.00 0.00 0.00 27 1014.9
20260508003017 69 270 4.0 11.0 0.00 0.00 0.00 25 1014.8
20260508002016 70 203 1.0 4.0 0.00 0.00 0.00 27 1014.8
20260508001016 69 270 4.0 14.0 0.00 0.00 0.00 24 1014.7
20260508000016 70 270 5.0 15.0 0.00 0.00 0.00 22 1014.7
20260507235036 70 270 4.0 9.0 0.00 0.00 0.00 26 1014.9
20260507234016 70 270 4.0 10.0 0.00 0.00 0.00 22 1014.8
20260507233016 70 248 5.0 14.0 0.00 0.00 0.00 22 1014.8
20260507232017 70 270 7.0 15.0 0.00 0.00 0.00 21 1015.0
20260507231016 69 293 6.0 19.0 0.00 0.00 0.00 24 1015.0
20260507230036 69 225 6.0 13.0 0.00 0.00 0.00 25 1015.1
20260507225016 70 270 5.0 14.0 0.00 0.00 0.00 29 1015.1
20260507224018 70 248 6.0 15.0 0.00 0.00 0.00 28 1015.3
20260507223016 69 270 7.0 18.0 0.00 0.00 0.00 26 1015.5
20260507222016 70 270 7.0 16.0 0.00 0.00 0.00 28 1015.5
20260507221016 70 270 5.0 14.0 0.00 0.00 0.00 29 1015.7
20260507220016 69 293 6.0 15.0 0.00 0.00 0.00 33 1015.6
20260507215017 69 248 5.0 13.0 0.00 0.00 0.00 34 1015.8
20260507214015 68 270 7.0 15.0 0.00 0.00 0.00 31 1015.8
20260507213016 68 225 5.0 12.0 0.00 0.00 0.00 37 1015.9
20260507212017 68 338 6.0 17.0 0.00 0.00 0.00 42 1016.0
20260507211037 68 225 5.0 12.0 0.00 0.00 0.00 39 1016.0
20260507210015 68 270 5.0 12.0 0.00 0.00 0.00 42 1016.1
20260507205017 68 248 4.0 17.0 0.00 0.00 0.00 48 1016.1
20260507204016 68 270 5.0 16.0 0.00 0.00 0.00 45 1016.1
20260507203015 67 270 6.0 22.0 0.00 0.00 0.00 44 1016.2
20260507202016 67 315 6.0 14.0 0.00 0.00 0.00 46 1016.2
20260507201015 67 315 7.0 17.0 0.00 0.00 0.00 47 1016.4
20260507200015 66 315 5.0 23.0 0.00 0.00 0.00 50 1016.5
20260507195016 66 315 6.0 15.0 0.00 0.00 0.00 46 1016.8
20260507194021 66 0 5.0 14.0 0.00 0.00 0.00 47 1016.5
20260507193037 65 270 5.0 16.0 0.00 0.00 0.00 48 1016.9
20260507192017 65 270 5.0 13.0 0.00 0.00 0.00 51 1017.1
20260507191038 65 270 4.0 15.0 0.00 0.00 0.00 55 1017.2
20260507190016 64 225 5.0 11.0 0.00 0.00 0.00 54 1017.3
20260507185017 64 248 4.0 10.0 0.00 0.00 0.00 55 1017.3
20260507184017 63 270 4.0 11.0 0.00 0.00 0.00 54 1017.6
20260507183017 63 158 4.0 9.0 0.00 0.00 0.00 55 1017.5
20260507182557 62 0 3.0 9.0 0.00 0.00 0.00 60 1017.6
20260507181517 62 315 5.0 12.0 0.00 0.00 0.00 58 1017.4
20260507180517 61 293 4.0 15.0 0.00 0.00 0.00 61 1017.4
20260507175517 61 270 5.0 12.0 0.00 0.00 0.00 59 1017.3
20260507174517 61 270 4.0 11.0 0.00 0.00 0.00 61 1017.5
20260507173557 60 270 4.0 14.0 0.00 0.00 0.00 62 1017.6
20260507172517 60 270 4.0 11.0 0.00 0.00 0.00 62 1017.8
20260507171517 59 270 4.0 12.0 0.00 0.00 0.00 65 1018.1
20260507170517 59 270 5.0 15.0 0.00 0.00 0.00 64 1018.1